[[{"header":{"parameterUnit":"m.s-1","parameterCategory":1,"la1":30.2991,"la2":30.254,"lo1":-89.0895,"lo2":-89.0444,"dy":0.0017,"dx":0.0017,"nx":28,"ny":28,"refTime":"2024-03-21T03:00:00:Z","depth":0,"parameterNumber":2,"parameterNumberName":"U-component_of_WINDS"},"data":[0,0,0,0,0,0,0,0,0,0,0,0,0,0,0,0,0,0,0,0,0,0,0,0,0,0,0,0,0,0,0,0,0,0,0,0,0,0,0,0,0,0,0,0,0,0,0,0,0,0,0,0,0,0,0,0,0,0,-5.7125,-5.7126,0,-5.7221,-5.7222,-5.7223,-5.7097,-5.7093,-5.7088,-5.7084,-5.7183,-5.719,-5.7197,0,0,0,0,0,0,0,0,0,0,0,0,0,-5.6833,-5.6839,-5.7125,-5.7126,-5.7127,-5.7221,-5.7222,-5.7223,-5.7098,-5.7093,-5.7087,-5.7082,-5.7181,-5.7189,-5.7197,0,0,0,0,0,0,0,0,0,0,0,0,0,-5.6948,-5.6841,-5.7124,-5.7076,-5.7073,-5.722,-5.7222,-5.7224,-5.7099,-5.7093,-5.7086,-5.7079,-5.7178,-5.7188,-5.7199,-5.7399,0,0,-5.723,-5.7235,0,0,0,0,0,0,0,0,-5.6941,-5.6958,-5.7082,-5.708,-5.7076,-5.714,-5.7155,-5.7282,-5.7101,-5.7089,-5.7084,-5.7076,-5.7175,-5.7185,-5.7218,-5.7403,-5.7408,-5.7231,-5.7237,-5.7242,-5.7245,0,0,0,0,0,0,0,-5.6933,-5.6954,-5.7163,-5.7084,-5.708,-5.7049,-5.7058,-5.7179,-5.7169,-5.709,-5.7081,-5.7094,-5.7172,-5.7208,-5.7219,-5.7409,-5.7231,-5.724,-5.7246,-5.725,-5.7764,-5.7771,0,0,0,0,0,0,-5.6931,-5.6948,-5.716,-5.7165,-5.699,-5.706,-5.707,-5.7126,-5.7167,-5.7167,-5.71,-5.7088,-5.7194,-5.7207,-5.7222,-5.7459,-5.7242,-5.7251,-5.7257,-5.7756,-5.7765,-5.7774,0,0,0,0,0,0,-5.6925,-5.6951,-5.7156,-5.7054,-5.7078,-5.7072,-5.7137,-5.7132,-5.7168,-5.7175,-5.7172,-5.7139,-5.7189,-5.7208,-5.7356,-5.7461,-5.7256,-5.7265,-5.7748,-5.7759,-5.777,-5.7936,0,0,0,0,0,0,-5.6918,-5.695,-5.7026,-5.7057,-5.7084,-5.7288,-5.7143,-5.7139,-5.7186,-5.7172,-5.7211,-5.7211,-5.7185,-5.7341,-5.7366,-5.7472,-5.7273,-5.7738,-5.7753,-5.7766,-5.7921,-5.7951,-5.7977,0,0,0,0,0,-5.6908,-5.7069,-5.7031,-5.7057,-5.7179,-5.7294,-5.731,-5.7277,-5.7195,-5.7272,-5.7276,-5.721,-5.7445,-5.7357,-5.7384,-5.7495,-5.7731,-5.7749,-5.7765,-5.7908,-5.7945,-5.7977,0,0,0,0,0,0,-5.7051,-5.7072,-5.703,-5.7206,-5.725,-5.7273,-5.7368,-5.7317,-5.7384,-5.7368,-5.7324,-5.7334,-5.7492,-5.7508,-5.7409,-5.769,-5.7575,-5.7598,-5.7675,-5.771,-5.7738,-5.7731,-5.7282,0,0,0,0,0,-5.7103,-5.7195,-5.7209,-5.7363,-5.7387,-5.7375,-5.7423,-5.7394,-5.7437,-5.7455,-5.747,-5.7515,-5.7598,-5.7655,-5.7732,-5.7922,-5.7929,-5.8011,-5.8039,-5.8063,-5.8083,-5.8185,-5.8222,-5.7829,-5.7828,-5.7828,0,0,-5.7212,-5.7235,-5.7296,-5.7392,-5.7422,-5.7519,-5.7391,-5.7498,-5.7569,-5.7471,-5.7612,-5.7625,-5.7672,-5.7842,-5.7917,-5.786,-5.8193,-5.8084,-5.8102,-5.8111,-5.8206,-5.8243,-5.8276,-5.784,-5.7838,-5.7836,0,0,-5.7459,-5.7486,-5.7617,-5.765,-5.7697,-5.7688,-5.772,-5.7751,-5.7756,-5.7896,-5.7825,-5.7909,-5.8054,-5.8091,-5.8128,-5.839,-5.8331,-5.8416,-5.8564,-5.8663,-5.8694,-5.8722,-5.8815,-5.8849,-5.8436,-5.8437,-5.8437,0,-5.7588,-5.7731,-5.7691,-5.7804,-5.7849,-5.7764,-5.7897,-5.7931,-5.8002,-5.8035,-5.7969,-5.815,-5.8175,-5.8353,-5.8416,-5.8449,-5.8485,-5.8412,-5.8693,-5.872,-5.8745,-5.8834,-5.8869,-5.8447,-5.8446,-5.8445,-5.8444,0,-5.7888,-5.7988,-5.8088,-5.8158,-5.8214,-5.8337,-5.8316,-5.8377,-5.8343,-5.8341,-5.8485,-5.8512,-5.8594,-5.8634,-5.8602,-5.8807,-5.877,-5.87,-5.8583,-5.8793,-5.8876,-5.8909,-5.8461,-5.8458,-5.8455,-5.8452,0,0,-5.8229,-5.8275,-5.8313,-5.8344,-5.8389,-5.8466,-5.8584,-5.8664,-5.8718,-5.8769,-5.8868,-5.8993,-5.8928,-5.8971,-5.8941,-5.9029,-5.9235,-5.8947,-5.8948,-5.9,-5.9463,-5.9517,-5.9557,-5.9196,-5.9202,-5.9207,-5.9459,0,-5.8476,-5.8681,-5.865,-5.8848,-5.894,-5.8861,-5.8964,-5.9003,-5.9004,-5.9082,-5.9082,-5.9172,-5.9079,-5.9105,-5.9188,-5.9192,-5.9327,-5.9173,-5.9288,-5.9292,-5.9279,-5.96,-5.9656,-5.9893,-5.9491,-5.9497,-5.9501,0,-5.8793,-5.8856,-5.9064,-5.9095,-5.9132,-5.9226,-5.9296,-5.9372,-5.9415,-5.9409,-5.9457,-5.9412,-5.9531,-5.9411,-5.9574,-5.947,-5.9515,-5.9524,-5.9533,-5.9543,-5.941,-5.9619,-5.9968,-6.0004,-5.9551,-5.9547,-5.9544,0,-5.9022,-5.9158,-5.93,-5.9329,-5.9369,-5.9437,-5.9456,-5.9492,-5.9542,-5.9604,-5.9636,-5.9711,-5.9752,-5.9811,-5.9788,-5.9703,-5.9956,-5.9834,-5.9954,-5.9955,-6.0012,-6.0009,-6.0374,-6.004,-6.004,-6.0039,-6.0038,0,-5.9302,-5.9433,-5.9403,-5.9491,-5.9635,-5.9596,-5.974,-5.975,-5.9783,-5.987,-5.9806,-5.989,-5.9853,-5.9935,-5.9917,-6.0055,-6.0074,-6.0073,-6.0067,-6.0079,-6.008,-6.0109,-6.0092,-6.0048,-6.0046,-6.0044,-6.0043,0,-5.9582,-5.9568,-5.9718,-5.9743,-5.9753,-5.9857,-5.9879,-5.9961,-5.9956,-6.0069,-6.0093,-6.0086,-6.0179,-6.0161,-6.0263,-6.0251,-6.0424,-6.0397,-6.041,-6.0404,-6.0525,-6.0515,-6.0922,-6.0974,-6.0607,-6.061,-6.0613,0,-5.9763,-5.9861,-5.9897,-5.9952,-5.9976,-6.0065,-6.0115,-6.0081,-6.0137,-6.0193,-6.0269,-6.0356,-6.0423,-6.0575,-6.058,-6.0657,-6.0632,-6.077,-6.0644,-6.0653,-6.0635,-6.063,-6.064,-6.0795,-6.0799,-6.0803,-6.0805,0,-6.0084,-6.0072,-6.0148,-6.0222,-6.0284,-6.034,-6.039,-6.0439,-6.0409,-6.0475,-6.0568,-6.0621,-6.0725,-6.0813,-6.0885,-6.0905,-6.0852,-6.0845,-6.0877,-6.0891,-6.0895,-6.0895,-6.0479,-6.0836,-6.0833,-6.0831,-6.0829,-6.0828,-6.032,-6.0404,-6.0443,-6.0529,-6.0563,-6.0612,-6.069,-6.0695,-6.0773,-6.0855,-6.083,-6.0937,-6.0977,-6.1069,-6.1098,-6.1181,-6.1129,-6.1176,-6.1188,-6.12,-6.1215,-6.0881,-6.1194,-6.1193,-6.1192,-6.1191,-6.1191,0,-6.0639,-6.066,-6.074,-6.0812,-6.088,-6.0823,-6.0875,-6.0936,-6.1031,-6.1073,-6.1141,-6.1249,-6.1333,-6.1344,-6.1424,-6.1489,-6.1466,-6.1511,-6.1506,-6.1512,-6.1256,-6.1221,-6.1528,-6.1528,-6.1528,-6.1528,-6.1528,-6.1528,-6.0813,-6.0952,-6.0945,-6.11,-6.1119,-6.1224,-6.1259,-6.1303,-6.1336,-6.146,-6.153,-6.1536,-6.1566,-6.1647,-6.1722,-6.1723,-6.1755,-6.181,-6.1802,-6.1563,-6.153,-6.1498,-6.1464,-6.1818,-6.1818,-6.2051,-6.2053,-6.2054]},{"header":{"parameterUnit":"m.s-1","parameterCategory":1,"la1":30.2991,"la2":30.254,"lo1":-89.0895,"lo2":-89.0444,"dy":0.0017,"dx":0.0017,"nx":28,"ny":28,"refTime":"2024-03-21T03:00:00:Z","depth":0,"parameterNumber":3,"parameterNumberName":"V-component_of_WINDS"},"data":[0,0,0,0,0,0,0,0,0,0,0,0,0,0,0,0,0,0,0,0,0,0,0,0,0,0,0,0,0,0,0,0,0,0,0,0,0,0,0,0,0,0,0,0,0,0,0,0,0,0,0,0,0,0,0,0,0,0,-1.1556,-1.1556,0,-1.1536,-1.1536,-1.1536,-1.15,-1.15,-1.1499,-1.1498,-1.1478,-1.1479,-1.1479,0,0,0,0,0,0,0,0,0,0,0,0,0,-1.1563,-1.1563,-1.1556,-1.1556,-1.1556,-1.1536,-1.1536,-1.1536,-1.15,-1.15,-1.1499,-1.1498,-1.1478,-1.1479,-1.1479,0,0,0,0,0,0,0,0,0,0,0,0,0,-1.1554,-1.1563,-1.1556,-1.1536,-1.1534,-1.1537,-1.1536,-1.1536,-1.1501,-1.15,-1.1499,-1.1498,-1.1478,-1.1479,-1.1479,-1.15,0,0,-1.1479,-1.1479,0,0,0,0,0,0,0,0,-1.1554,-1.1553,-1.1539,-1.1537,-1.1535,-1.152,-1.1531,-1.1524,-1.1501,-1.1513,-1.1498,-1.1497,-1.1493,-1.1492,-1.149,-1.1499,-1.1498,-1.1479,-1.1479,-1.1479,-1.1479,0,0,0,0,0,0,0,-1.1555,-1.1554,-1.1548,-1.1539,-1.1536,-1.1527,-1.1525,-1.153,-1.1509,-1.1512,-1.1509,-1.1507,-1.1492,-1.149,-1.149,-1.1498,-1.1479,-1.1479,-1.1479,-1.148,-1.1522,-1.1523,0,0,0,0,0,0,-1.1559,-1.1555,-1.1549,-1.1548,-1.1542,-1.1528,-1.1525,-1.1526,-1.1509,-1.1505,-1.1508,-1.1506,-1.1491,-1.149,-1.1489,-1.1512,-1.1479,-1.148,-1.148,-1.1521,-1.1522,-1.1523,0,0,0,0,0,0,-1.1559,-1.1558,-1.155,-1.1551,-1.1549,-1.1529,-1.153,-1.1526,-1.1524,-1.1506,-1.1502,-1.1511,-1.149,-1.1489,-1.1497,-1.1511,-1.148,-1.148,-1.152,-1.1522,-1.1523,-1.1559,0,0,0,0,0,0,-1.1559,-1.1559,-1.1567,-1.1551,-1.1549,-1.1559,-1.1531,-1.1526,-1.1525,-1.1521,-1.1507,-1.1504,-1.1489,-1.1497,-1.1497,-1.1511,-1.148,-1.1519,-1.1521,-1.1522,-1.1557,-1.1562,-1.1566,0,0,0,0,0,-1.156,-1.1578,-1.1567,-1.1567,-1.1559,-1.156,-1.1558,-1.154,-1.1526,-1.1534,-1.1522,-1.1505,-1.1509,-1.1498,-1.1498,-1.1512,-1.1518,-1.152,-1.1522,-1.1554,-1.1561,-1.1566,0,0,0,0,0,0,-1.1597,-1.1576,-1.1564,-1.1578,-1.1571,-1.1554,-1.1563,-1.1548,-1.1545,-1.1542,-1.1519,-1.1517,-1.1528,-1.1521,-1.1509,-1.1531,-1.1511,-1.1513,-1.1535,-1.1541,-1.1546,-1.1547,-1.148,0,0,0,0,0,-1.1606,-1.1609,-1.1591,-1.1605,-1.1602,-1.1583,-1.1583,-1.1569,-1.1561,-1.1558,-1.1547,-1.154,-1.154,-1.154,-1.1539,-1.1555,-1.1551,-1.1565,-1.1569,-1.1573,-1.1575,-1.1583,-1.1588,-1.1531,-1.1531,-1.1531,0,0,-1.1627,-1.1615,-1.1619,-1.1612,-1.1605,-1.1608,-1.1581,-1.1585,-1.1587,-1.1559,-1.1566,-1.1558,-1.1548,-1.1561,-1.1566,-1.1555,-1.159,-1.1576,-1.158,-1.158,-1.1586,-1.1591,-1.1596,-1.1533,-1.1532,-1.1532,0,0,-1.1665,-1.1657,-1.1667,-1.1661,-1.165,-1.1637,-1.164,-1.1625,-1.1618,-1.1625,-1.1603,-1.1605,-1.1606,-1.1599,-1.1596,-1.1631,-1.1615,-1.1631,-1.1656,-1.1663,-1.1668,-1.1672,-1.1683,-1.1688,-1.1634,-1.1634,-1.1634,0,-1.1691,-1.1695,-1.1675,-1.168,-1.1677,-1.1652,-1.1662,-1.1656,-1.1646,-1.1645,-1.1633,-1.1632,-1.1624,-1.1634,-1.1642,-1.1641,-1.1643,-1.1633,-1.1669,-1.1672,-1.1676,-1.1686,-1.1691,-1.1636,-1.1636,-1.1635,-1.1635,0,-1.1727,-1.173,-1.1739,-1.173,-1.1728,-1.1736,-1.1717,-1.1718,-1.1704,-1.1693,-1.1699,-1.1689,-1.1684,-1.1686,-1.1673,-1.1694,-1.1688,-1.1673,-1.1652,-1.1683,-1.1693,-1.1697,-1.1639,-1.1638,-1.1637,-1.1637,0,0,-1.1788,-1.1767,-1.177,-1.1765,-1.1751,-1.1753,-1.1759,-1.1755,-1.1755,-1.1749,-1.1754,-1.1754,-1.174,-1.1736,-1.1722,-1.1729,-1.1756,-1.1713,-1.1712,-1.1721,-1.1777,-1.1788,-1.1793,-1.1745,-1.1746,-1.1747,-1.1778,0,-1.1823,-1.1832,-1.1814,-1.1828,-1.1829,-1.1805,-1.181,-1.1802,-1.1791,-1.1791,-1.1779,-1.1779,-1.1761,-1.1759,-1.1764,-1.1752,-1.1767,-1.1749,-1.1749,-1.1749,-1.1751,-1.1799,-1.181,-1.184,-1.1782,-1.1782,-1.1783,0,-1.1864,-1.1859,-1.1873,-1.1858,-1.1858,-1.1863,-1.1857,-1.1857,-1.1847,-1.1839,-1.1834,-1.1818,-1.1823,-1.1803,-1.1809,-1.1797,-1.1796,-1.179,-1.179,-1.1789,-1.1767,-1.1798,-1.1849,-1.1854,-1.1789,-1.1788,-1.1788,0,-1.1906,-1.1903,-1.1911,-1.1907,-1.1889,-1.1893,-1.1886,-1.1875,-1.1873,-1.1868,-1.1867,-1.1862,-1.186,-1.1856,-1.1839,-1.1826,-1.1847,-1.1826,-1.1839,-1.184,-1.1845,-1.1844,-1.1896,-1.1845,-1.1845,-1.1845,-1.1845,0,-1.1947,-1.1956,-1.1929,-1.1934,-1.1943,-1.1922,-1.1932,-1.1922,-1.1913,-1.1915,-1.1893,-1.1896,-1.1873,-1.1872,-1.1859,-1.1865,-1.1865,-1.1858,-1.1854,-1.1859,-1.186,-1.1858,-1.1855,-1.1846,-1.1846,-1.1846,-1.1845,0,-1.1995,-1.1978,-1.1984,-1.1966,-1.1962,-1.197,-1.1954,-1.1958,-1.1945,-1.1948,-1.1948,-1.1928,-1.1927,-1.1909,-1.1904,-1.1895,-1.1906,-1.1899,-1.191,-1.1907,-1.1921,-1.192,-1.1973,-1.1978,-1.1925,-1.1925,-1.1926,0,-1.2021,-1.2028,-1.201,-1.201,-1.2004,-1.2003,-1.2001,-1.1981,-1.1979,-1.1968,-1.1972,-1.1969,-1.1965,-1.1964,-1.195,-1.1945,-1.1937,-1.1956,-1.1936,-1.1941,-1.1936,-1.1936,-1.1936,-1.196,-1.1961,-1.1961,-1.1962,0,-1.207,-1.206,-1.2058,-1.2052,-1.205,-1.2045,-1.2038,-1.2039,-1.2016,-1.2015,-1.2013,-1.201,-1.2005,-1.2001,-1.1994,-1.1987,-1.197,-1.1968,-1.1971,-1.1976,-1.1981,-1.1978,-1.192,-1.1967,-1.1966,-1.1966,-1.1966,-1.1965,-1.2107,-1.2111,-1.2099,-1.2097,-1.2089,-1.2084,-1.2085,-1.2073,-1.2071,-1.2064,-1.2053,-1.2052,-1.2041,-1.203,-1.2024,-1.2023,-1.2013,-1.2018,-1.2019,-1.202,-1.2022,-1.1982,-1.2022,-1.2022,-1.2022,-1.2021,-1.2021,0,-1.2153,-1.2144,-1.2142,-1.2133,-1.2131,-1.2116,-1.2107,-1.2107,-1.2106,-1.2098,-1.2094,-1.2091,-1.2088,-1.2073,-1.2068,-1.207,-1.2062,-1.2069,-1.2069,-1.2067,-1.2032,-1.2029,-1.2076,-1.2076,-1.2076,-1.2076,-1.2076,-1.2076,-1.2177,-1.2183,-1.2172,-1.2174,-1.2165,-1.2164,-1.216,-1.2155,-1.2147,-1.2145,-1.2142,-1.2132,-1.2121,-1.2114,-1.211,-1.2106,-1.2105,-1.2114,-1.2107,-1.2075,-1.2069,-1.2064,-1.2062,-1.2114,-1.2114,-1.2142,-1.2143,-1.2143]}]]